TimeEST,TemperatureF,Dew PointF,Humidity,Sea Level PressureIn,VisibilityMPH,Wind Direction,Wind SpeedMPH,Gust SpeedMPH,PrecipitationIn,Events,Conditions,WindDirDegrees,DateUTC
12:15 AM,26.6,24.8,93,30.10,10.0,Calm,Calm,-,N/A,,Clear,0,2014-01-02 05:15:00
12:35 AM,28.4,24.8,86,30.10,10.0,Calm,Calm,-,N/A,,Clear,0,2014-01-02 05:35:00
12:55 AM,26.6,24.8,93,30.09,10.0,Calm,Calm,-,N/A,,Clear,0,2014-01-02 05:55:00
1:15 AM,28.4,24.8,86,30.08,10.0,Calm,Calm,-,N/A,,Clear,0,2014-01-02 06:15:00
1:35 AM,26.6,24.8,93,30.08,10.0,Calm,Calm,-,N/A,,Clear,0,2014-01-02 06:35:00
1:55 AM,28.4,24.8,86,30.08,10.0,Calm,Calm,-,N/A,,Clear,0,2014-01-02 06:55:00
2:15 AM,28.4,24.8,86,30.07,10.0,Calm,Calm,-,N/A,,Clear,0,2014-01-02 07:15:00
2:35 AM,28.4,23.0,80,30.06,10.0,Calm,Calm,-,N/A,,Clear,0,2014-01-02 07:35:00
2:55 AM,30.2,24.8,80,30.05,10.0,Calm,Calm,-,N/A,,Clear,0,2014-01-02 07:55:00
3:15 AM,30.2,23.0,75,30.05,10.0,Calm,Calm,-,N/A,,Clear,0,2014-01-02 08:15:00
3:35 AM,30.2,23.0,75,30.04,10.0,South,3.5,-,N/A,,Clear,180,2014-01-02 08:35:00
3:55 AM,30.2,23.0,75,30.02,10.0,Calm,Calm,-,N/A,,Clear,0,2014-01-02 08:55:00
4:15 AM,30.2,23.0,75,30.01,10.0,Calm,Calm,-,N/A,,Clear,0,2014-01-02 09:15:00
4:35 AM,30.2,23.0,75,30.00,10.0,Calm,Calm,-,N/A,,Clear,0,2014-01-02 09:35:00
4:55 AM,32.0,24.8,75,29.98,10.0,Calm,Calm,-,N/A,,Clear,0,2014-01-02 09:55:00
5:15 AM,32.0,23.0,69,29.97,10.0,Calm,Calm,-,N/A,,Clear,0,2014-01-02 10:15:00
5:35 AM,30.2,24.8,80,29.97,10.0,SSW,4.6,-,N/A,,Clear,200,2014-01-02 10:35:00
5:55 AM,30.2,24.8,80,29.97,10.0,South,4.6,-,N/A,,Clear,190,2014-01-02 10:55:00
6:15 AM,33.8,24.8,70,29.95,10.0,Calm,Calm,-,N/A,,Clear,0,2014-01-02 11:15:00
6:35 AM,30.2,24.8,80,29.95,10.0,Calm,Calm,-,N/A,,Clear,0,2014-01-02 11:35:00
6:55 AM,30.2,24.8,80,29.95,10.0,Calm,Calm,-,N/A,,Clear,0,2014-01-02 11:55:00
7:15 AM,30.2,24.8,80,29.94,10.0,Calm,Calm,-,N/A,,Clear,0,2014-01-02 12:15:00
7:35 AM,30.2,24.8,80,29.94,10.0,Calm,Calm,-,N/A,,Clear,0,2014-01-02 12:35:00
7:55 AM,30.2,26.6,86,29.94,10.0,Calm,Calm,-,N/A,,Clear,0,2014-01-02 12:55:00
8:15 AM,32.0,26.6,80,29.94,10.0,Calm,Calm,-,N/A,,Clear,0,2014-01-02 13:15:00
8:35 AM,30.2,26.6,86,29.93,10.0,Calm,Calm,-,N/A,,Clear,0,2014-01-02 13:35:00
8:55 AM,30.2,28.4,93,29.93,10.0,Calm,Calm,-,N/A,,Clear,0,2014-01-02 13:55:00
9:15 AM,33.8,28.4,81,29.91,10.0,Calm,Calm,-,N/A,,Clear,0,2014-01-02 14:15:00
9:35 AM,33.8,26.6,75,29.91,10.0,Calm,Calm,-,N/A,,Clear,0,2014-01-02 14:35:00
9:55 AM,33.8,26.6,75,29.89,10.0,Calm,Calm,-,N/A,,Clear,0,2014-01-02 14:55:00
10:15 AM,35.6,28.4,75,29.90,10.0,Calm,Calm,-,N/A,,Clear,0,2014-01-02 15:15:00
10:35 AM,37.4,28.4,70,29.88,10.0,Calm,Calm,-,N/A,,Clear,0,2014-01-02 15:35:00
10:55 AM,37.4,28.4,70,29.86,10.0,Calm,Calm,-,N/A,,Clear,0,2014-01-02 15:55:00
11:15 AM,39.2,28.4,65,29.85,10.0,Calm,Calm,-,N/A,,Scattered Clouds,0,2014-01-02 16:15:00
11:35 AM,41.0,28.4,61,29.82,10.0,Calm,Calm,-,N/A,,Mostly Cloudy,0,2014-01-02 16:35:00
11:55 AM,41.0,28.4,61,29.81,10.0,Calm,Calm,-,N/A,,Scattered Clouds,0,2014-01-02 16:55:00
12:15 PM,41.0,28.4,61,29.78,10.0,Calm,Calm,-,N/A,,Mostly Cloudy,0,2014-01-02 17:15:00
12:35 PM,42.8,28.4,57,29.76,10.0,Calm,Calm,-,N/A,,Overcast,0,2014-01-02 17:35:00
12:55 PM,42.8,28.4,57,29.76,10.0,Calm,Calm,-,N/A,,Overcast,0,2014-01-02 17:55:00
1:15 PM,42.8,28.4,57,29.74,10.0,Calm,Calm,-,N/A,,Overcast,0,2014-01-02 18:15:00
1:35 PM,44.6,28.4,53,29.73,10.0,Calm,Calm,-,N/A,,Overcast,0,2014-01-02 18:35:00
1:55 PM,44.6,28.4,53,29.73,10.0,West,3.5,-,N/A,,Light Drizzle,270,2014-01-02 18:55:00
2:15 PM,44.6,28.4,53,29.70,10.0,Calm,Calm,-,N/A,,Light Drizzle,0,2014-01-02 19:15:00
2:35 PM,44.6,28.4,53,29.70,10.0,Calm,Calm,-,N/A,,Light Drizzle,0,2014-01-02 19:35:00
2:55 PM,42.8,30.2,61,29.70,7.0,Calm,Calm,-,N/A,Rain,Light Rain,0,2014-01-02 19:55:00
3:15 PM,42.8,35.6,76,29.70,7.0,Calm,Calm,-,0.02,Rain,Rain,0,2014-01-02 20:15:00
3:35 PM,42.8,39.2,87,29.69,5.0,Calm,Calm,-,0.05,Rain,Rain,0,2014-01-02 20:35:00
3:55 PM,41.0,39.2,93,29.68,10.0,Calm,Calm,-,0.01,Rain,Light Rain,0,2014-01-02 20:55:00
4:15 PM,39.2,39.2,100,29.67,7.0,Calm,Calm,-,0.03,Rain,Light Rain,0,2014-01-02 21:15:00
4:35 PM,41.0,39.2,93,29.65,7.0,Calm,Calm,-,0.04,Rain,Light Rain,0,2014-01-02 21:35:00
4:55 PM,39.2,37.4,93,29.64,5.0,Calm,Calm,-,0.01,Rain,Rain,0,2014-01-02 21:55:00
5:15 PM,39.2,39.2,100,29.64,5.0,Calm,Calm,-,0.04,Rain,Rain,0,2014-01-02 22:15:00
5:35 PM,39.2,37.4,93,29.62,4.0,Calm,Calm,-,0.08,Rain,Rain,0,2014-01-02 22:35:00
5:55 PM,39.2,37.4,93,29.64,5.0,Calm,Calm,-,N/A,Rain,Light Rain,0,2014-01-02 22:55:00
6:15 PM,39.2,37.4,93,29.66,4.0,WNW,3.5,-,0.04,Rain,Rain,300,2014-01-02 23:15:00
6:35 PM,39.2,37.4,93,29.65,5.0,Calm,Calm,-,0.06,Rain,Rain,0,2014-01-02 23:35:00
6:55 PM,39.2,37.4,93,29.63,4.0,Calm,Calm,-,0.01,Rain,Rain,0,2014-01-02 23:55:00
7:15 PM,37.4,37.4,100,29.63,5.0,NNW,3.5,-,0.03,Rain,Light Rain,340,2014-01-03 00:15:00
7:35 PM,37.4,35.6,93,29.62,4.0,North,3.5,-,0.05,Rain,Rain,360,2014-01-03 00:35:00
7:55 PM,37.4,35.6,93,29.63,4.0,Calm,Calm,-,0.01,Rain,Light Rain,0,2014-01-03 00:55:00
8:15 PM,37.4,35.6,93,29.60,5.0,Calm,Calm,-,0.03,Rain,Rain,0,2014-01-03 01:15:00
8:35 PM,37.4,35.6,93,29.60,1.0,Calm,Calm,-,0.07,Rain,Rain,0,2014-01-03 01:35:00
8:55 PM,37.4,35.6,93,29.59,2.0,Calm,Calm,-,0.02,Rain,Rain,0,2014-01-03 01:55:00
9:15 PM,35.6,35.6,100,29.60,5.0,Calm,Calm,-,0.03,Rain,Light Rain,0,2014-01-03 02:15:00
9:35 PM,35.6,35.6,100,29.60,7.0,Calm,Calm,-,0.03,,Light Drizzle,0,2014-01-03 02:35:00
9:55 PM,35.6,35.6,100,29.60,7.0,Calm,Calm,-,N/A,,Overcast,0,2014-01-03 02:55:00
10:15 PM,35.6,35.6,100,29.60,7.0,Calm,Calm,-,0.01,,Overcast,0,2014-01-03 03:15:00
10:35 PM,35.6,35.6,100,29.60,5.0,Calm,Calm,-,0.01,,Overcast,0,2014-01-03 03:35:00
10:55 PM,35.6,35.6,100,29.60,5.0,NW,3.5,-,N/A,,Overcast,310,2014-01-03 03:55:00
11:15 PM,35.6,33.8,93,29.61,5.0,Calm,Calm,-,N/A,,Overcast,0,2014-01-03 04:15:00
11:35 PM,35.6,33.8,93,29.61,5.0,NNW,3.5,-,N/A,,Overcast,330,2014-01-03 04:35:00
11:55 PM,35.6,33.8,93,29.61,5.0,Calm,Calm,-,N/A,,Overcast,0,2014-01-03 04:55:00